Regional Weather Roundup
Issued by NWS

Home | Current Version | Previous Version | Text Only | Print | Product List | Glossary On
Versions: 1 2 3 4 5 6 7 8 9 10 11 12 13 14 15 16 17 18 19 20 21 22 23 24 25 26 27 28 29 30 31 32 33 34 35 36 37 38 39 40 41 42 43 44 45 46 47 48 49 50
000
ASUS45 KBOU 240707
RWRCO

WEATHER ROUNDUP FOR COLORADO
NATIONAL WEATHER SERVICE DENVER/BOULDER CO
100 AM MDT SUN MAY 24 2015

NOTE: "FAIR" INDICATES FEW OR NO CLOUDS BELOW 12000 FEET WITH NO
SIGNIFICANT WEATHER AND/OR OBSTRUCTIONS TO VISIBILITY.

COZ001>005-013-030-031-240800-
...NORTHWEST COLORADO...

CITY           SKY/WX    TMP DP  RH WIND       PRES   REMARKS
CRAIG          CLOUDY    42  36  79 E3        29.99S
HAYDEN         CLOUDY    39  34  81 SE7       29.99R
MEEKER         PTCLDY    40  36  86 CALM      30.00S
MOUNT WERNER   NOT AVBL
STEAMBOAT SPGS CLOUDY    36  34  93 CALM      30.00S
WALDEN         MOCLDY    34  32  93 E5        30.02S WCI  30
$$

COZ006>008-011-240800-
...WEST CENTRAL VALLEYS...

CITY           SKY/WX    TMP DP  RH WIND       PRES   REMARKS
GRAND JUNCTION MOCLDY    45  42  89 SE10      29.98R
MONTROSE       CLOUDY    43  42  97 E3        30.04S
EAGLE          PTCLDY    37  36  93 CALM      30.04S
RIFLE          CLOUDY    46  39  76 NE6       29.99R
DELTA          CLOUDY    48  43  82 MISG      30.02S
NUCLA          PTCLDY    43  41  93 NW3       30.05S
$$

COZ017>023-064>068-240800-
...SOUTHWEST COLORADO...

CITY           SKY/WX    TMP DP  RH WIND       PRES   REMARKS
DURANGO        MOCLDY    41  38  89 N5        30.04S
CORTEZ         CLOUDY    44  43  96 CALM      30.02S
PAGOSA SPRINGS DRIZZLE   42  35  74 SE3       30.07S
TELLURIDE      PTCLDY    32  32 100 CALM      30.09S
WOLF CREEK PAS NOT AVBL
$$

COZ009-010-012-014-032>034-037-058>063-240800-
...CENTRAL COLORADO...

CITY           SKY/WX    TMP DP  RH WIND       PRES   REMARKS
ASPEN          CLOUDY    38  34  85 S3        30.03S
BUENA VISTA    MOCLDY    37  29  72 NE3       30.03S
COPPER MTN     CLEAR     28  19  69 CALM      30.13R
BERTHOUD PASS  FAIR      19  10  68 MISG      30.15R
COTTONWOOD PAS CLOUDY    37  27  65 S5        30.08R
GUNNISON       PTCLDY    41  30  65 W3        30.07R
KREMMLING      CLOUDY    36  32  87 CALM      30.06R
LEADVILLE      PTCLDY    26  22  84 CALM      30.07R
MONARCH PASS   FOG       27  23  86 MISG      30.23S VSB<1/4
SALIDA         MOCLDY    42  32  69 CALM      30.10R
SUNLIGHT       MOCLDY    32  30  93 SE3         N/A
WILKERSON PASS PTCLDY    30  21  69 SE3       30.15S
$$

COZ069>075-240800-
...SAN LUIS VALLEY/SANGRE DE CRISTO MOUNTAINS...

CITY           SKY/WX    TMP DP  RH WIND       PRES   REMARKS
ALAMOSA        PTCLDY    37  27  67 SW8       30.02S
LA VETA PASS   CLEAR    N/A N/A N/A MISG      30.11F
SAGUACHE       CLOUDY    43  30  61 N7        30.03S
$$

COZ035-036-038>040-240800-
...NORTHERN COLORADO FRONT RANGE...

CITY           SKY/WX    TMP DP  RH WIND       PRES   REMARKS
DENVER INTL AP PTCLDY    44  41  89 S5        29.96R
DMNS CITY PARK   N/A     44  42  95 SW6       29.96F
AURORA         PTCLDY    42  41  99 S10       29.97F
FRONT RANGE AP NOT AVBL
ERIE MUNI ARPT PTCLDY    42  41  96 CALM      29.96R
BOULDER MUN AP PTCLDY    43  41  93 CALM      29.96R
CENTENNIAL     PTCLDY    42  40  92 SE7       29.97S
BROOMFIELD     PTCLDY    43  37  81 SW6       29.97S
FORT COLLINS   PTCLDY    46  41  81 CALM      29.96R
LONGMONT       PTCLDY    43  41  94 CALM      29.98S
$$

COZ041-046-047-076>085-087-088-240800-
...PIKES PEAK/PALMER DIVIDE AND SOUTHERN FOOTHILLS...

CITY           SKY/WX    TMP DP  RH WIND       PRES   REMARKS
COLO. SPRINGS  MOCLDY    47  40  76 W5        29.98R
A. F. ACADEMY  MOCLDY    42  40  92 NW6       29.98F
ELLICOTT       NOT AVBL
FALCON         MOCLDY    44  40  87 NE7       30.00F
FORT CARSON    MOCLDY    49  37  61 W6        29.95F
LIMON          FOG       45  45 100 N8        29.96S VSB 3/4
MONUMENT HILL  NOT AVBL
TRINIDAD       CLEAR     44  42  93 NW9       29.94S
$$

COZ042>045-048>051-090-091-240800-
...NORTHEAST COLORADO...

CITY           SKY/WX    TMP DP  RH WIND       PRES   REMARKS
GREELEY ARPT   PTCLDY    46  43  87 CALM      29.95S
AKRON          FOG       49  49 100 SE9       29.94S VSB 1/2
BURLINGTON     RAIN      52  49  89 SW15      29.97R FOG
WRAY           CLOUDY   N/A N/A N/A SE9       29.94R
STERLING       CLOUDY    48  48 100 CALM      29.93R
HOLYOKE        NOT AVBL
FORT MORGAN    CLOUDY    44  43  95 NE6       29.95R
$$

COZ086-089-092>099-240800-
...SOUTHEAST COLORADO...

CITY           SKY/WX    TMP DP  RH WIND       PRES   REMARKS
PUEBLO         PTCLDY    53  46  77 CALM      29.94S
LA JUNTA       MOCLDY    50  48  93 NW8       29.92R
LAMAR          MOCLDY    55  53  93 E9        29.88F
SPRINGFIELD      N/A     54  54 100 SE13      29.91F
$$



USA.gov is the U.S. government's official web portal to all federal, state and local government web resources and services.